DateTimeUTC,F1_A11,F1_S11,BsB_S11,BsG_S11,BsR_S11,BbsB_S11,BbsG_S11,BbsR_S11,BaB_A11,BaG_A11,BaR_A11,Tu_S11,T_S11,Uu_S11,U_S11,P_S11,T1_A11
2021-02-13T12:00:00Z,00000200,21000000,,,,,,,-000.10,0000.05,0000.04,15.9,22.6,,00.0,0656.5,31.0
2021-02-13T12:01:00Z,00000200,21000000,,,,,,,-000.41,-000.39,-000.33,15.9,22.7,,00.0,0656.5,30.9
2021-02-13T12:02:00Z,00000200,21000000,,,,,,,0000.12,0000.39,0000.12,15.9,22.7,,00.0,0656.5,30.9
2021-02-13T12:03:00Z,00000200,61000000,,,,,,,0000.11,-000.19,-000.13,15.9,22.7,,00.0,0656.5,30.9
2021-02-13T12:04:00Z,00000200,41000000,0000.13,0000.27,0000.02,0000.31,0000.18,0000.24,-000.21,-000.05,0000.26,16.0,22.4,,00.0,0657.5,30.9
2021-02-13T12:05:00Z,00000200,01000000,-000.08,0000.64,0000.12,-000.23,-000.30,0000.17,0000.27,0000.29,-000.14,16.0,22.3,,00.0,0657.6,30.9
2021-02-13T12:06:00Z,00000200,01000000,-000.33,0000.37,0000.11,-000.00,-000.66,0000.27,0000.17,-000.27,0000.30,16.1,22.3,,00.0,0657.6,30.9
2021-02-13T12:07:00Z,00000200,01000000,-000.48,0000.56,0000.09,-000.40,-000.15,0000.05,0000.22,0000.33,0000.13,16.1,22.4,,00.0,0657.6,30.9
2021-02-13T12:08:00Z,00000200,01000000,0000.23,0000.79,0000.14,-000.25,0000.06,0000.20,-000.10,-000.11,-000.13,16.2,22.4,,00.0,0657.6,31.0
2021-02-13T12:09:00Z,00000200,01000000,0000.18,0000.74,0000.19,0000.16,-000.29,-000.04,0000.36,0000.59,0000.14,16.3,22.5,,00.0,0657.6,31.0
2021-02-13T12:10:00Z,00000200,01000000,-001.01,0000.63,0000.03,-000.29,0000.05,0000.02,-000.17,0000.08,-000.13,16.3,22.5,,00.0,0657.6,31.0
2021-02-13T12:11:00Z,00000200,01000000,-000.23,0000.44,0000.30,-000.07,-000.25,0000.24,-000.26,-000.40,-000.01,16.4,22.5,,00.0,0657.6,31.0
2021-02-13T12:12:00Z,00000200,01000000,0000.14,0000.31,0000.36,-000.04,-000.17,0000.20,0000.16,0000.04,0000.15,16.3,22.5,,00.0,0657.5,31.0
2021-02-13T12:13:00Z,00000200,01000000,-000.56,0000.43,0000.18,-000.15,0000.05,0000.18,-000.05,-000.12,-000.16,16.3,22.5,,00.0,0657.5,31.0
2021-02-13T12:14:00Z,00000200,01000000,-000.05,0000.54,0000.13,0000.37,0000.12,-000.01,0000.03,-000.37,-000.02,16.3,22.5,,00.0,0657.5,31.0
2021-02-13T12:15:00Z,00000200,01000000,-000.71,0000.46,0000.01,0000.10,-000.03,0000.05,0000.19,0000.76,0000.06,16.3,22.4,,00.0,0657.5,31.0
2021-02-13T12:16:00Z,00000200,01000000,-000.05,0000.33,0000.06,0000.03,0000.13,0000.29,-000.08,-000.36,0000.17,16.2,22.4,,00.0,0657.6,31.0
2021-02-13T12:17:00Z,00000200,01000000,0000.68,0000.30,-000.04,-000.23,0000.16,0000.30,0000.43,0000.06,0000.08,16.2,22.4,,00.0,0657.6,31.0
2021-02-13T12:18:00Z,00000200,01000000,-000.10,0000.24,0000.03,-000.51,0000.22,0000.05,-000.23,0000.29,0000.00,16.2,22.4,,00.0,0657.6,30.9
2021-02-13T12:19:00Z,00000200,01000000,-000.45,0000.27,0000.28,-000.35,-000.24,0000.05,0000.19,-000.15,0000.02,16.1,22.4,,00.0,0657.6,30.9
2021-02-13T12:20:00Z,00000200,01000000,0000.20,0000.60,0000.28,-000.67,-000.19,0000.21,0000.18,0000.74,0000.46,16.1,22.4,,00.0,0657.6,30.9
2021-02-13T12:21:00Z,00000200,01000000,0000.19,0000.12,0000.23,-000.15,-000.16,0000.39,0000.38,-000.08,0000.01,16.2,22.4,,00.0,0657.6,30.9
2021-02-13T12:22:00Z,00000200,01000000,0000.19,0000.50,0000.19,-000.20,0000.01,-000.01,-000.01,0000.21,0000.22,16.2,22.4,,00.0,0657.6,31.0
2021-02-13T12:23:00Z,00000200,01000000,0000.49,0000.40,0000.03,-001.06,-000.09,0000.37,0000.31,0000.20,-000.11,16.3,22.4,,00.0,0657.5,31.0
2021-02-13T12:24:00Z,00000200,01000000,-000.22,0000.68,0000.21,0000.06,-000.38,0000.28,0000.13,0000.18,0000.24,16.4,22.5,,00.0,0657.5,31.0
2021-02-13T12:25:00Z,00000200,01000000,0000.13,0000.20,0000.01,-000.46,-000.12,0000.04,-000.12,-000.11,-000.04,16.4,22.5,,00.0,0657.5,31.0
2021-02-13T12:26:00Z,00000200,01000000,-000.89,0000.43,0000.58,0000.21,-000.32,0000.12,0000.12,0000.45,0000.19,16.4,22.5,,00.0,0657.5,31.0
2021-02-13T12:27:00Z,00000200,01000000,0000.33,0000.66,0000.28,-000.25,0000.12,0000.16,0000.10,-000.23,-000.09,16.4,22.5,,00.0,0657.6,31.0
2021-02-13T12:28:00Z,00000200,01000000,-000.17,0000.31,0000.42,-000.21,-000.20,0000.29,0000.11,-000.05,0000.04,16.3,22.5,,00.0,0657.6,31.0
2021-02-13T12:29:00Z,00000200,01000000,0000.10,0000.55,0000.03,-000.05,-000.06,0000.01,0000.04,0000.02,-000.16,16.3,22.4,,00.0,0657.6,31.0
2021-02-13T12:30:00Z,00000200,01000000,0000.77,-000.11,0000.06,-000.29,-000.22,0000.12,-000.16,-000.14,0000.18,16.2,22.4,,00.0,0657.6,31.0
2021-02-13T12:31:00Z,00000200,01000000,0000.02,0000.37,-000.34,-000.86,-000.36,-000.15,0000.40,0000.13,0000.32,16.2,22.4,,00.0,0657.6,31.0
2021-02-13T12:32:00Z,00000200,01000000,0000.82,0000.25,-000.03,0000.36,-000.31,0000.06,-000.15,0000.13,-000.47,16.2,22.4,,00.0,0657.6,31.0
2021-02-13T12:33:00Z,00000200,01000000,0000.73,0000.79,0000.13,0000.10,-000.28,0000.26,0000.23,0000.01,0000.05,16.2,22.4,,00.0,0657.6,30.9
2021-02-13T12:34:00Z,00000200,01000000,0000.25,0000.68,0000.26,-000.83,-000.16,0000.40,-000.10,-000.02,0000.17,16.1,22.4,,00.0,0657.6,30.9
2021-02-13T12:35:00Z,00000200,01000000,-000.32,0000.45,0000.24,-000.18,0000.12,0000.19,0000.57,0000.23,0000.16,16.1,22.4,,00.0,0657.7,30.9
2021-02-13T12:36:00Z,00000200,01000000,0000.18,0000.42,0000.17,-000.10,-000.13,0000.34,-000.00,0000.41,0000.33,16.2,22.4,,00.0,0657.6,30.9
2021-02-13T12:37:00Z,00000200,01000000,0000.69,0000.50,-000.04,-000.53,0000.00,0000.22,0000.44,-000.14,0000.17,16.2,22.4,,00.0,0657.6,31.0
2021-02-13T12:38:00Z,00000200,01000000,-000.04,0000.47,0000.05,-000.46,-000.14,0000.20,-000.19,0000.20,0000.04,16.3,22.4,,00.0,0657.6,31.0
2021-02-13T12:39:00Z,00000200,01000000,-000.63,0000.47,0000.63,-000.82,0000.08,0000.31,0000.08,0000.34,-000.13,16.4,22.5,,00.0,0657.7,31.0
2021-02-13T12:40:00Z,00000200,01000000,0000.30,0000.29,-000.17,-000.07,-000.01,0000.12,0000.25,-000.19,0000.45,16.4,22.5,,00.0,0657.7,31.0
2021-02-13T12:41:00Z,00000200,01000000,0000.35,0000.79,-000.14,0000.31,-000.45,0000.19,-000.16,0000.13,-000.49,16.4,22.5,,00.0,0657.7,30.9
2021-02-13T12:42:00Z,00000200,01000000,-000.50,0000.38,0000.60,-000.47,-000.25,-000.08,-000.06,-000.08,0000.22,16.4,22.5,,00.0,0657.7,30.9
2021-02-13T12:43:00Z,00000200,01000000,0000.69,0000.49,-000.03,-000.39,-000.17,0000.23,0000.23,0000.20,-000.06,16.4,22.5,,00.0,0657.7,31.0
2021-02-13T12:44:00Z,00000200,01000000,-000.24,-000.01,0000.28,-000.54,-000.21,0000.00,-000.41,-000.12,0000.06,16.4,22.5,,00.0,0657.6,31.0
2021-02-13T12:45:00Z,00000200,01000000,0000.91,0000.42,0000.13,-000.43,-000.07,-000.13,0000.50,0000.09,0000.35,16.4,22.5,,00.0,0657.6,31.0
2021-02-13T12:46:00Z,00000200,01000000,-000.16,0000.78,0000.23,-000.40,-000.23,-000.03,0000.16,0000.29,-000.17,16.4,22.5,,00.0,0657.6,31.0
2021-02-13T12:47:00Z,00000200,01000000,0000.78,0000.71,0000.29,0000.07,0000.30,-000.14,0000.09,-000.12,0000.18,16.4,22.5,,00.0,0657.6,31.0
2021-02-13T12:48:00Z,00000200,01000000,0000.13,0000.45,0000.27,0000.42,-000.22,0000.29,0000.19,0000.03,0000.08,16.3,22.5,,00.0,0657.6,31.0
2021-02-13T12:49:00Z,00000200,01000000,-000.42,0000.88,0000.12,-000.18,-000.37,-000.20,0000.13,-000.03,0000.03,16.3,22.5,,00.0,0657.5,30.9
2021-02-13T12:50:00Z,00000200,01000000,0000.18,0000.72,0000.27,0000.09,-000.17,0000.18,0000.31,0000.29,0000.34,16.3,22.5,,00.0,0657.5,30.9
2021-02-13T12:51:00Z,00000200,01000000,0000.19,0000.32,0000.20,-000.07,-000.03,0000.13,0000.18,0000.45,0000.10,16.4,22.5,,00.0,0657.5,30.9
2021-02-13T12:52:00Z,00000200,01000000,0000.03,0000.50,0000.03,-000.37,-000.35,0000.16,0000.05,0000.05,0000.06,16.4,22.5,,00.0,0657.5,31.0
2021-02-13T12:53:00Z,00000200,01000000,0000.65,0000.37,0000.49,-000.77,0000.03,0000.14,0000.33,0000.24,0000.33,16.5,22.5,,00.0,0657.5,31.0
2021-02-13T12:54:00Z,00000200,01000000,0000.25,0000.06,0000.44,-000.14,-000.03,0000.59,-000.06,0000.44,0000.11,16.6,22.6,,00.0,0657.5,31.0
2021-02-13T12:55:00Z,00000200,01000000,0000.11,0000.44,-000.03,0000.24,-000.27,0000.07,0000.15,-000.40,0000.01,16.7,22.7,,00.0,0657.5,31.0
2021-02-13T12:56:00Z,00000200,01000000,0000.00,0000.74,-000.02,-000.49,-000.32,0000.37,0000.03,0000.70,0000.04,16.8,22.7,,00.0,0657.5,31.0
2021-02-13T12:57:00Z,00000200,41000000,,,,,,,0000.48,-000.02,0000.16,16.9,22.8,,00.0,0657.5,31.0
2021-02-13T12:58:00Z,00000200,61000000,,,,,,,-000.13,-000.08,0000.23,16.7,22.9,,00.0,0656.6,31.0
2021-02-13T12:59:00Z,00000200,21000000,,,,,,,-000.04,0000.20,-000.06,16.7,23.0,,00.0,0656.5,31.0
